カタログに戻る

SL-8 DEB

運用中LEO
NORAD 27748·DEBRIS·🇷🇺 Russia

打ち上げ Feb 12, 1991 から Plesetsk Cosmodrome

Loading…

次のパス (今後24時間)

TLE

最新Source: Space-Track

元期: Sep 14, 2026, 00:33 UTC

1 27748U 91009DD  26257.02339597  .00000051  00000-0  60769-3 0  9994
2 27748  74.0486 116.0288 0174629 171.7861 340.9925 12.19647137304465

AllMySatでSL-8 DEBをリアルタイム追跡

Download on the App Store